Time,TemperatureF,DewpointF,PressureIn,WindDirection,WindDirectionDegrees,WindSpeedMPH,WindSpeedGustMPH,Humidity,HourlyPrecipIn,Conditions,Clouds,dailyrainin,SolarRadiationWatts/m^2,SoftwareType,DateUTC
2013-08-05 00:02:00,63.0,50.0,-100.00,ENE,70,0.0,6.0,62,0.00,,,0.00,0.000000,,2013-08-05 07:02:00,
2013-08-05 00:33:00,63.0,50.0,-100.00,East,87,0.0,6.0,63,0.00,,,0.00,0.000000,,2013-08-05 07:33:00,
2013-08-05 00:43:00,63.0,50.0,-100.00,East,87,0.0,6.0,63,0.00,,,0.00,0.000000,,2013-08-05 07:43:00,
2013-08-05 00:53:00,63.0,50.0,-100.00,East,87,0.0,6.0,63,0.00,,,0.00,0.000000,,2013-08-05 07:53:00,
2013-08-05 01:02:00,63.0,50.0,-100.00,East,87,0.0,6.0,63,0.00,,,0.00,0.000000,,2013-08-05 08:02:00,
2013-08-05 01:34:00,63.0,50.0,-100.00,East,94,0.0,5.0,63,0.00,,,0.00,0.000000,,2013-08-05 08:34:00,
2013-08-05 01:54:00,63.0,50.0,-100.00,East,94,0.0,5.0,63,0.00,,,0.00,0.000000,,2013-08-05 08:54:00,
2013-08-05 02:03:00,63.0,50.0,-100.00,East,94,0.0,5.0,63,0.00,,,0.00,0.000000,,2013-08-05 09:03:00,
2013-08-05 02:48:00,64.0,45.0,-100.00,East,79,0.0,4.0,51,0.00,,,0.00,0.000000,,2013-08-05 09:48:00,
2013-08-05 02:53:00,64.0,45.0,-100.00,East,79,0.0,4.0,51,0.00,,,0.00,0.000000,,2013-08-05 09:53:00,
2013-08-05 04:03:00,61.0,42.0,-100.00,ENE,77,0.0,4.0,50,0.00,,,0.00,0.000000,,2013-08-05 11:03:00,
2013-08-05 04:52:00,61.0,43.0,-100.00,ESE,110,0.0,5.0,52,0.00,,,0.00,0.000000,,2013-08-05 11:52:00,
2013-08-05 04:58:00,61.0,43.0,-100.00,ESE,110,0.0,5.0,52,0.00,,,0.00,0.000000,,2013-08-05 11:58:00,
2013-08-05 05:33:00,59.0,42.0,-100.00,ESE,121,0.0,6.0,54,0.00,,,-99.99,0.000000,,2013-08-05 12:33:00,
2013-08-05 05:58:00,59.0,42.0,-100.00,ESE,121,0.0,6.0,54,0.00,,,-99.99,0.000000,,2013-08-05 12:58:00,
2013-08-05 06:54:00,61.0,43.0,-100.00,ENE,71,0.0,5.0,51,0.00,,,0.00,7.000000,,2013-08-05 13:54:00,
2013-08-05 07:03:00,61.0,43.0,-100.00,ENE,71,0.0,5.0,51,0.00,,,0.00,7.000000,,2013-08-05 14:03:00,
2013-08-05 07:48:00,65.0,46.0,-100.00,ENE,70,0.0,7.0,51,0.00,,,0.00,165.000000,,2013-08-05 14:48:00,
2013-08-05 07:54:00,65.0,46.0,-100.00,ENE,70,0.0,7.0,51,0.00,,,0.00,165.000000,,2013-08-05 14:54:00,
2013-08-05 08:03:00,65.0,46.0,-100.00,ENE,70,0.0,7.0,51,0.00,,,0.00,165.000000,,2013-08-05 15:03:00,
2013-08-05 09:58:00,77.0,47.0,-100.00,NE,47,0.0,5.0,35,-99.99,,,0.00,605.000000,,2013-08-05 16:58:00,
2013-08-05 12:39:00,78.0,46.0,-100.00,WNW,285,1.0,8.0,32,-99.99,,,0.00,260.000000,,2013-08-05 19:39:00,
2013-08-05 12:53:00,78.0,46.0,-100.00,WNW,285,1.0,8.0,32,-99.99,,,0.00,260.000000,,2013-08-05 19:53:00,
2013-08-05 13:03:00,78.0,46.0,-100.00,WNW,285,1.0,8.0,32,-99.99,,,0.00,260.000000,,2013-08-05 20:03:00,
2013-08-05 13:48:00,84.0,49.0,-100.00,SW,224,2.0,7.0,30,0.00,,,0.00,308.000000,,2013-08-05 20:48:00,
2013-08-05 13:59:00,84.0,49.0,-100.00,SW,224,2.0,7.0,30,0.00,,,0.00,308.000000,,2013-08-05 20:59:00,
2013-08-05 14:34:00,87.0,50.0,-100.00,North,0,2.0,8.0,28,0.00,,,0.00,759.000000,,2013-08-05 21:34:00,
2013-08-05 14:48:00,87.0,50.0,-100.00,North,0,2.0,8.0,28,0.00,,,0.00,759.000000,,2013-08-05 21:48:00,
2013-08-05 14:53:00,87.0,50.0,-100.00,North,0,2.0,8.0,28,0.00,,,0.00,759.000000,,2013-08-05 21:53:00,
2013-08-05 15:38:00,87.0,46.0,-100.00,West,265,5.0,15.0,24,0.00,,,0.00,1026.000000,,2013-08-05 22:38:00,
2013-08-05 15:44:00,87.0,46.0,-100.00,West,265,5.0,15.0,24,0.00,,,0.00,1026.000000,,2013-08-05 22:44:00,
2013-08-05 15:53:00,87.0,46.0,-100.00,West,265,5.0,15.0,24,0.00,,,0.00,1026.000000,,2013-08-05 22:53:00,
2013-08-05 16:02:00,87.0,46.0,-100.00,West,265,5.0,15.0,24,0.00,,,0.00,1026.000000,,2013-08-05 23:02:00,
2013-08-05 16:46:00,87.0,46.0,-100.00,NE,34,3.0,14.0,24,0.00,,,0.00,869.000000,,2013-08-05 23:46:00,
2013-08-05 16:59:00,87.0,46.0,-100.00,NE,34,3.0,14.0,24,0.00,,,0.00,869.000000,,2013-08-05 23:59:00,
2013-08-05 17:45:00,84.0,44.0,-100.00,NE,34,4.0,12.0,25,0.00,,,0.00,686.000000,,2013-08-06 00:45:00,
2013-08-05 17:57:00,84.0,44.0,-100.00,NE,34,4.0,12.0,25,0.00,,,0.00,686.000000,,2013-08-06 00:57:00,
2013-08-05 18:42:00,84.0,46.0,-100.00,SSE,162,3.0,14.0,27,0.00,,,0.00,468.000000,,2013-08-06 01:42:00,
2013-08-05 18:51:00,84.0,46.0,-100.00,SSE,162,3.0,14.0,27,0.00,,,0.00,468.000000,,2013-08-06 01:51:00,
2013-08-05 19:33:00,78.0,46.0,-100.00,ENE,64,4.0,15.0,32,0.00,,,0.00,246.000000,,2013-08-06 02:33:00,
2013-08-05 19:48:00,78.0,46.0,-100.00,ENE,64,4.0,15.0,32,0.00,,,0.00,246.000000,,2013-08-06 02:48:00,
2013-08-05 20:01:00,78.0,46.0,-100.00,ENE,64,4.0,15.0,32,0.00,,,0.00,246.000000,,2013-08-06 03:01:00,
2013-08-05 20:35:00,70.0,46.0,-100.00,SSW,213,3.0,13.0,43,0.00,,,0.00,11.000000,,2013-08-06 03:35:00,
2013-08-05 20:45:00,70.0,46.0,-100.00,SSW,213,3.0,13.0,43,0.00,,,0.00,11.000000,,2013-08-06 03:45:00,
2013-08-05 20:52:00,70.0,46.0,-100.00,SSW,213,3.0,13.0,43,0.00,,,0.00,11.000000,,2013-08-06 03:52:00,
2013-08-05 21:01:00,70.0,46.0,-100.00,SSW,213,3.0,13.0,43,0.00,,,0.00,11.000000,,2013-08-06 04:01:00,
2013-08-05 21:33:00,64.0,44.0,-100.00,ESE,105,0.0,8.0,48,0.00,,,0.00,0.000000,,2013-08-06 04:33:00,
2013-08-05 21:44:00,64.0,44.0,-100.00,ESE,105,0.0,8.0,48,0.00,,,0.00,0.000000,,2013-08-06 04:44:00,
2013-08-05 21:53:00,64.0,44.0,-100.00,ESE,105,0.0,8.0,48,0.00,,,0.00,0.000000,,2013-08-06 04:53:00,
2013-08-05 22:02:00,64.0,44.0,-100.00,ESE,105,0.0,8.0,48,0.00,,,0.00,0.000000,,2013-08-06 05:02:00,
2013-08-05 22:32:00,63.0,43.0,-100.00,WSW,240,2.0,10.0,48,0.00,,,0.00,0.000000,,2013-08-06 05:32:00,
2013-08-05 22:43:00,63.0,43.0,-100.00,WSW,240,2.0,10.0,48,0.00,,,0.00,0.000000,,2013-08-06 05:43:00,
2013-08-05 22:53:00,63.0,43.0,-100.00,WSW,240,2.0,10.0,48,0.00,,,0.00,0.000000,,2013-08-06 05:53:00,